Kimball, NE

7:32 PM MST on February 25, 2017 (GMT -0700)
Kimball Municipal-Arraj

Weather History for KIBM - May, 2013

Change the Weather History Date:

Sunday, May 5, 2013

  Actual Average (KSNY) Record (KSNY)
Temperature  
Mean Temperature 44 °F -  
Max Temperature 59 °F 67 °F 92 °F (2004)
Min Temperature 28 °F 38 °F 22 °F (2013)
Degree Days  
Heating Degree Days 22    
Moisture  
Dew Point 24 °F    
Average Humidity 48    
Maximum Humidity 81    
Minimum Humidity 24    
Precipitation  
Precipitation 0.00 in - - ()
Sea Level Pressure  
Sea Level Pressure 30.18 in    
Wind  
Wind Speed 4 mph (SSE)    
Max Wind Speed 12 mph    
Max Gust Speed 17 mph    
Visibility 10 miles    
Events      
Averages and records for this station are not official NWS values.
T = Trace of Precipitation, MM = Missing Value Source: NWS Daily Summary

Daily Weather History Graph

Daily Weather History Graph

Search for Another Location

Airport or City:

Trip Planner

Search our weather history database for the weather conditions in past years. The results will help you decide how hot, cold, wet, or windy it might be!

Date:

Astronomy

May. 05, 2013 Rise Set
Actual Time 6:47 AM CDT 8:56 PM CDT
Civil Twilight 6:16 AM CDT 9:26 PM CDT
Nautical Twilight 5:39 AM CDT 10:04 PM CDT
Astronomical Twilight 4:58 AM CDT 10:45 PM CDT
Moon 4:21 AM CDT (5/5) 4:56 PM CDT (5/5)
Length of Visible Light 15h 10m
Length of Day
14h 09m
Waning Crescent, 18% of the Moon is Illuminated
May 5
Waning Crescent
May 9
New
May 17
First Quarter
May 24
Full
May 31
Last Quarter

Hourly Weather History & Observations

Time (CDT) Temp. Windchill Dew Point Humidity Pressure Visibility Wind Dir Wind Speed Gust Speed Precip Events Conditions
12:15 AM 36.5 °F 31.8 °F 23.0 °F 58% 30.23 in 10.0 mi ENE 5.8 mph - N/A   Clear
12:35 AM 35.2 °F 28.8 °F 23.0 °F 61% 30.22 in 10.0 mi ENE 8.1 mph - N/A   Clear
12:55 AM 34.9 °F 32.0 °F 23.0 °F 62% 30.23 in 10.0 mi East 3.5 mph - N/A   Clear
1:15 AM 34.7 °F 31.8 °F 22.1 °F 60% 30.23 in 10.0 mi SSE 3.5 mph - N/A   Clear
1:35 AM 34.5 °F 31.6 °F 22.8 °F 62% 30.23 in 10.0 mi SE 3.5 mph - N/A   Clear
1:55 AM 35.8 °F 33.0 °F 21.0 °F 55% 30.24 in 10.0 mi SSE 3.5 mph - N/A   Clear
2:15 AM 34.0 °F - 22.3 °F 62% 30.23 in 10.0 mi Calm Calm - N/A   Clear
2:35 AM 34.7 °F 31.8 °F 21.2 °F 58% 30.23 in 10.0 mi SE 3.5 mph - N/A   Clear
2:55 AM 34.7 °F - 20.8 °F 57% 30.23 in 10.0 mi Calm Calm - N/A   Clear
3:15 AM 32.0 °F - 23.4 °F 70% 30.23 in 10.0 mi Calm Calm - N/A   Clear
3:35 AM 31.8 °F 28.5 °F 23.7 °F 72% 30.23 in 10.0 mi SW 3.5 mph - N/A   Clear
3:55 AM 32.2 °F - 23.0 °F 69% 30.23 in 10.0 mi Calm Calm - N/A   Clear
4:15 AM 30.0 °F - 23.4 °F 76% 30.22 in 10.0 mi Calm Calm - N/A   Clear
4:35 AM 29.7 °F - 23.7 °F 79% 30.21 in 10.0 mi Calm Calm - N/A   Clear
4:55 AM 32.0 °F 28.7 °F 22.5 °F 68% 30.21 in 10.0 mi SE 3.5 mph - N/A   Clear
5:15 AM 31.1 °F 27.7 °F 21.7 °F 68% 30.21 in 10.0 mi SE 3.5 mph - N/A   Clear
5:35 AM 32.2 °F - 20.1 °F 61% 30.21 in 10.0 mi Calm Calm - N/A   Clear
5:55 AM 31.8 °F 28.5 °F 21.7 °F 66% 30.21 in 10.0 mi West 3.5 mph - N/A   Clear
6:15 AM 29.3 °F 25.6 °F 22.6 °F 76% 30.21 in 10.0 mi West 3.5 mph - N/A   Clear
6:35 AM 29.3 °F 22.3 °F 23.0 °F 77% 30.21 in 10.0 mi WSW 6.9 mph - N/A   Clear
6:55 AM 28.4 °F 23.3 °F 23.0 °F 80% 30.21 in 10.0 mi West 4.6 mph - N/A   Clear
7:15 AM 28.9 °F - 23.7 °F 81% 30.21 in 10.0 mi Calm Calm - N/A   Clear
7:35 AM 30.2 °F 25.4 °F 24.3 °F 79% 30.22 in 10.0 mi West 4.6 mph - N/A   Clear
7:55 AM 33.1 °F 30.0 °F 25.3 °F 73% 30.23 in 10.0 mi WSW 3.5 mph - N/A   Clear
8:15 AM 33.8 °F 29.6 °F 26.1 °F 73% 30.23 in 10.0 mi West 4.6 mph - N/A   Clear
8:35 AM 36.7 °F 34.1 °F 25.0 °F 63% 30.23 in 10.0 mi WSW 3.5 mph - N/A   Clear
8:55 AM 39.4 °F 37.2 °F 24.1 °F 54% 30.23 in 10.0 mi SW 3.5 mph - N/A   Clear
9:15 AM 41.4 °F 39.4 °F 26.8 °F 56% 30.23 in 10.0 mi SSW 3.5 mph - N/A   Clear
9:35 AM 43.7 °F - 22.3 °F 43% 30.23 in 10.0 mi Calm Calm - N/A   Scattered Clouds
9:55 AM 44.8 °F - 21.6 °F 40% 30.23 in 10.0 mi Calm Calm - N/A   Scattered Clouds
10:15 AM 46.2 °F - 19.2 °F 34% 30.23 in 10.0 mi Calm Calm - N/A   Clear
10:35 AM 48.2 °F - 18.5 °F 31% 30.22 in 10.0 mi Calm Calm - N/A   Clear
10:55 AM 49.8 °F - 19.8 °F 31% 30.22 in 10.0 mi East 3.5 mph - N/A   Clear
11:15 AM 50.5 °F - 20.5 °F 31% 30.22 in 10.0 mi SE 4.6 mph - N/A   Clear
11:35 AM 51.6 °F - 19.9 °F 29% 30.21 in 10.0 mi East 5.8 mph - N/A   Clear
11:55 AM 52.0 °F - 20.5 °F 29% 30.21 in 10.0 mi ESE 6.9 mph - N/A   Clear
12:15 PM 52.7 °F - 20.3 °F 28% 30.20 in 10.0 mi East 8.1 mph - N/A   Clear
12:35 PM 54.5 °F - 21.2 °F 27% 30.20 in 10.0 mi SE 5.8 mph - N/A   Clear
1:15 PM 55.0 °F - 21.6 °F 27% 30.19 in 10.0 mi East 9.2 mph - N/A   Clear
1:35 PM 55.2 °F - 21.4 °F 27% 30.19 in 10.0 mi ESE 5.8 mph - N/A   Clear
1:55 PM 57.2 °F - 21.0 °F 25% 30.17 in 10.0 mi Calm Calm - N/A   Clear
2:15 PM 57.2 °F - 21.2 °F 25% 30.17 in 10.0 mi NNE 3.5 mph 10.4 mph N/A   Clear
2:35 PM 58.5 °F - 21.7 °F 24% 30.16 in 10.0 mi East 8.1 mph - N/A   Clear
2:55 PM 58.5 °F - 22.1 °F 25% 30.15 in 10.0 mi ESE 10.4 mph - N/A   Clear
3:35 PM 59.4 °F - 23.2 °F 25% 30.13 in 10.0 mi East 6.9 mph - N/A   Clear
3:55 PM 59.5 °F - 22.8 °F 24% 30.13 in 10.0 mi South 8.1 mph - N/A   Clear
4:15 PM 59.4 °F - 23.0 °F 25% 30.13 in 10.0 mi South 11.5 mph 17.3 mph N/A   Clear
4:35 PM 58.1 °F - 21.7 °F 25% 30.12 in 10.0 mi Calm Calm - N/A   Clear
4:55 PM 59.5 °F - 22.5 °F 24% 30.12 in 10.0 mi South 4.6 mph - N/A   Scattered Clouds
5:15 PM 59.0 °F - 23.4 °F 25% 30.11 in 10.0 mi SE 9.2 mph - N/A   Clear
5:35 PM 58.1 °F - 21.9 °F 25% 30.11 in 10.0 mi South 9.2 mph 17.3 mph N/A   Scattered Clouds
5:55 PM 59.0 °F - 21.9 °F 24% 30.12 in 10.0 mi South 4.6 mph - N/A   Scattered Clouds
6:15 PM 58.8 °F - 21.7 °F 24% 30.12 in 10.0 mi South 8.1 mph - N/A   Clear
6:35 PM 57.6 °F - 21.7 °F 25% 30.12 in 10.0 mi South 5.8 mph - N/A   Clear
6:55 PM 57.6 °F - 23.4 °F 27% 30.12 in 10.0 mi SSE 6.9 mph - N/A   Clear
7:15 PM 57.2 °F - 24.3 °F 28% 30.12 in 10.0 mi SSE 5.8 mph - N/A   Mostly Cloudy
7:35 PM 56.7 °F - 23.9 °F 28% 30.12 in 10.0 mi SE 4.6 mph - N/A   Mostly Cloudy
7:55 PM 55.9 °F - 27.0 °F 33% 30.12 in 10.0 mi SSE 5.8 mph - N/A   Mostly Cloudy
8:15 PM 55.2 °F - 27.3 °F 34% 30.12 in 10.0 mi SSE 5.8 mph - N/A   Overcast
8:35 PM 53.2 °F - 29.3 °F 40% 30.12 in 10.0 mi SE 5.8 mph - N/A   Scattered Clouds
8:55 PM 51.1 °F - 30.2 °F 45% 30.12 in 10.0 mi SSE 8.1 mph - N/A   Clear
9:35 PM 48.4 °F - 31.8 °F 53% 30.12 in 10.0 mi SSE 9.2 mph - N/A   Clear
9:55 PM 48.4 °F - 30.0 °F 49% 30.12 in 10.0 mi SSE 9.2 mph - N/A   Clear
10:15 PM 46.4 °F 42.4 °F 30.7 °F 54% 30.13 in 10.0 mi SSE 8.1 mph - N/A   Clear
10:35 PM 45.3 °F 44.0 °F 30.9 °F 57% 30.13 in 10.0 mi SE 3.5 mph - N/A   Clear
10:55 PM 45.3 °F 42.3 °F 30.6 °F 56% 30.13 in 10.0 mi SE 5.8 mph - N/A   Clear
11:15 PM 43.9 °F 40.5 °F 31.6 °F 62% 30.13 in 10.0 mi SE 5.8 mph - N/A   Clear
11:35 PM 43.9 °F 39.9 °F 30.9 °F 60% 30.13 in 10.0 mi SSE 6.9 mph - N/A   Clear
11:55 PM 44.2 °F 40.3 °F 30.6 °F 59% 30.13 in 10.0 mi SSE 6.9 mph - N/A   Clear